Tracking 22454 objects as of 5-Mar-2021
HD Live streaming from Space Station
objects crossing your sky now

FREGAT DEB

Track FREGAT DEB now!
10-day predictions


NORAD ID: 46403
Int'l Code: 2011-037LG
Perigee: 382.3 km
Apogee: 3,136.3 km
Inclination: 51.6 °
Period: 121.6 minutes
Semi major axis: 8130 km
RCS: Unknown
Launch date: July 18, 2011
Source: Commonwealth of Independent States (former USSR) (CIS)
Launch site: TYURATAM MISSILE AND SPACE COMPLEX (TTMTR)

Note: This is SATELLITE DEBRIS
aabbcc
Your satellite tracking list
Your tracking list is empty




NASA's NSSDC Master Catalog

Two Line Element Set (TLE):
1 46403U 11037LJ  20291.48188630 +.00381972 +00000-0 +40674-1 0  9993
2 46403 051.5514 019.1705 1693644 323.1541 026.3786 11.84244466006980
Source of the keplerian elements: AFSPC